Location: Gro�wechsungen
(51.4926°N, 10.6901°E)
Time: 01:30:58
(UTC+00:00)

SJ-11-01 - Pass Details

Date: 18 September 2020
Orbit: 684 x 701 km, 98.0° (Epoch: 23 October)

Event Time Altitude Azimuth Distance (km) Brightness Sun altitude
Rises 18:04:14 0° 162° (SSE) 3,068 7.3 -7.1°
Reaches altitude 10° 18:06:29 10° 162° (SSE) 2,153 6.5 -7.4°
Maximum altitude 18:11:12 86° 77° (ENE) 704 4.3 -8.1°
Drops below altitude 10° 18:15:56 10° 347° (NNW) 2,158 7.2 -8.8°
Sets 18:18:11 0° 347° (NNW) 3,077 8.0 -9.2°
